User: anonymous   Login
Location: Unspecified
(0.0000°N, 0.0000°E)
Time: 12:37:52
(UTC+00:00)
Language:

Nova 3 - Orbit

View from above orbital plane
View from above orbital plane
View from above satellite
View from above satellite

Ground track
Ground track

The orbit data is extracted from the following two-line orbital elements,

1 15362U 84110A   18171.63713927 +.00000045 +00000-0 +87398-4 0  9995
2 15362 090.0562 056.6014 0030416 301.2632 086.6552 13.22753671625781
Epoch (UTC): 20 June 2018 15:17:28
Eccentricity: 0.0030416
inclination: 90.0562°
perigee height: 1151 km
apogee height: 1197 km
right ascension of ascending node: 56.6014°
argument of perigee: 301.2632°
revolutions per day: 13.22753671
mean anomaly at epoch: 86.6552°
orbit number at epoch: 62578

The dashed part of the orbit path shows where the satellite is in the earth's shadow,  

DLR